Terminal Aerodrome Forecast
Issued by NWS

Home | Current Version | Previous Version | Text Only | Print | Product List | Glossary On
Versions: 1 2 3 4 5 6 7 8 9 10 11 12 13 14 15 16 17 18 19 20 21 22 23 24 25 26 27 28 29 30 31 32 33 34
000
FTUS41 KBOX 192340
TAFBED
TAF
KBED 192340Z 2000/2024 32005KT P6SM BKN030
     FM200300 VRB03KT P6SM SCT200
     FM201500 01004KT P6SM BKN100
     FM201700 01005KT P6SM BKN025
     FM201900 02005KT P6SM BKN020=

USA.gov is the U.S. government's official web portal to all federal, state and local government web resources and services.